Location: Strada George Coșbuc
(47.6577°N, 23.5639°E)
Time: 03:41:48
(UTC+03:00)

ISS - Pass Details

Date: 11 October 2017
Orbit: 401 x 408 km, 51.6° (Epoch: 23 October)

Event Time Altitude Azimuth Distance (km) Brightness Sun altitude
Rises 21:15:42 0° 288° (WNW) 2,329 1.4 -25.9°
Reaches altitude 10° 21:18:05 10° 272° (W) 1,466 -0.1 -26.2°
Enters shadow 21:19:32 18° 249° (WSW) 1,075 -1.2 -26.5°
